Miscellaneous Local Product
Issued by NWS Hastings, NE

Home | Current Version | Previous Version | Graphics & Text | Print | Product List | Glossary On
Versions: 1 2 3 4 5 6 7 8 9 10 11 12 13 14 15 16 17 18 19 20 21 22 23 24 25 26 27 28 29 30 31 32 33 34 35 36 37 38 39 40 41 42 43 44 45 46 47 48 49 50
000
AXUS43 KGID 240602
MISGRI

GID CWA HOURLY WEATHER ROUNDUP
NATIONAL WEATHER SERVICE HASTINGS NE
100 AM CDT FRI APR 24 2015

NOTE: "FAIR" INDICATES FEW OR NO CLOUDS BELOW 12,000 FEET WITH NO
SIGNIFICANT WEATHER AND/OR OBSTRUCTIONS TO VISIBILITY.

...SOUTH CENTRAL NEBRASKA...

CITY           SKY/WX    TMP DP  RH WIND       PRES   REMARKS
GRAND ISLAND   FAIR      53  39  59 S10       29.84F
HASTINGS       FAIR      54  43  66 S10       29.83F
KEARNEY        CLOUDY    54  43  66 S10       29.83S
ORD            CLOUDY    54  40  59 SE15G25   29.77F
YORK           CLOUDY    55  37  50 S12       29.86F
AURORA         CLOUDY    56  40  54 S14G20    29.86S
LEXINGTON      CLOUDY    54  49  83 S10       29.81F
HOLDREGE       CLOUDY    55  43  65 S9        29.81F
HEBRON         CLOUDY    56  40  55 S10       29.88F

...NEBRASKA PANHANDLE...

CITY           SKY/WX    TMP DP  RH WIND       PRES   REMARKS
CHADRON        MOCLDY    52  41  66 MISG      29.65F
ALLIANCE       MOCLDY    51  43  74 S12       29.69F
SCOTTSBLUFF    MOCLDY    54  38  54 W8        29.72F
SIDNEY         CLOUDY    51  44  77 NW9       29.80R

...WESTERN AND NORTH CENTRAL NEBRASKA...

CITY           SKY/WX    TMP DP  RH WIND       PRES   REMARKS
VALENTINE      CLOUDY    54  44  69 SW8       29.69F
AINSWORTH      CLOUDY    54  44  68 S15       29.68F
ONEILL         MOCLDY    55  40  56 S18G24    29.76F
BROKEN BOW     CLOUDY    56  46  69 SE15G23   29.70F
IMPERIAL       CLOUDY    52  46  80 SE17      29.75F
NORTH PLATTE   NOT AVBL
MCCOOK         TSTM      57  51  80 E8        29.81F

...EASTERN NEBRASKA...

CITY           SKY/WX    TMP DP  RH WIND       PRES   REMARKS
NORFOLK        CLOUDY    58  34  40 S15       29.84F
SO SIOUX CITY  CLOUDY    56  34  43 SE16      29.87F
TEKAMAH        CLOUDY    57  35  43 SE17      29.88F
COLUMBUS       CLOUDY    57  32  38 S14G21    29.89R
ALBION         CLOUDY    56  35  43 S14       29.84F
OMAHA EPPLEY   CLOUDY    57  35  43 S14       29.90F
OFFUTT AFB     CLOUDY    55  36  48 SE8       29.90F
MILLARD        CLOUDY    57  37  46 SE8       29.90F
LINCOLN        CLOUDY    58  35  42 S15       29.89F
NEBRASKA CITY  CLOUDY    55  32  41 S5        29.93R
BEATRICE       CLOUDY    56  36  46 S14G20    29.88F
FALLS CITY     CLOUDY    57  37  47 SE8       29.92F

...NORTHERN KANSAS...

CITY           SKY/WX    TMP DP  RH WIND       PRES   REMARKS
GOODLAND       CLOUDY    57  45  64 S12       29.74F
HILL CITY      FAIR      56  50  80 E6        29.80S
NORTON         PTCLDY    55  46  71 E8        29.78F
SMITH CENTER   PTCLDY    54  45  71 E14       29.83F
BELOIT         MOCLDY    54  43  66 SE10      29.86F
HAYS           MOCLDY    55  46  71 SE13      29.81F
RUSSELL        MOCLDY    57  50  77 S13       29.84F
CONCORDIA      CLOUDY    55  41  59 SE13      29.88F
SALINA         CLOUDY    57  44  62 S5        29.90R
TOPEKA         CLOUDY    59  37  44 SE9       29.93F



USA.gov is the U.S. government's official web portal to all federal, state and local government web resources and services.